Погода в Герзель-Ауле

Россия / Чеченская Республика     43°14′50″N   46°23′59″E
темп.,
°C
ветер,
м/с
пор.,
м/с
влажн.,
%
обл.,
%
осадки,
мм/ч
давл.,
гПа
погр.,
м
16 мая, вс
вс1600:00+19юв226294 0.0 101112
03:00+17ююв116498 0.0 101012
06:00+19з016611 0.0 100936
09:00+24св22535 0.0 1009444
12:00+30в77292 0.0 10061022
15:00+30в1012320 0.0 1005737
18:00+25вюв712430 0.0 1004281
21:00+20юв46601 0.3 100580
17 мая, пн
пн1700:00+19ю125719 0.0 100422
03:00+18ю11535 0.0 100412
06:00+19юв115527 0.0 100527
09:00+25всв333892 0.0 1005419
12:00+30всв55313 0.0 1004697
15:00+28всв66380 0.0 1003453
18:00+22всв356117 0.0 1002115
21:00+19зюз357033 0.0 100684
18 мая, вт
вт1800:00+20зюз336780 0.0 100432
03:00+18зюз497475 0.0 1005215
06:00+18з9137994 0.0 1008873
09:00+19з71075100 0.0 10091018
12:00+19з6775100 0.2 1011950
15:00+21зюз6869100 0.6 1011935
18:00+20з576991 0.1 1011613
21:00+17юз45795 0.1 101271
19 мая, ср
ср1900:00+16юз337658 0.0 101242
03:00+15юз338097 0.0 101231
06:00+18зюз12745 0.0 101386
09:00+22ссз335918 0.0 1012803
12:00+26ссз33422 0.0 10121487
15:00+27с43374 0.0 10132007
18:00+25с125256 0.0 101422
21:00+22ю115244 0.0 101611
20 мая, чт
чт2000:00+17ю11640 0.0 101711
03:00+15ююз11721 0.0 101811
06:00+17вюв01680 0.0 101980
09:00+23всв68500 0.0 10171081
12:00+26в910411 0.0 10141351
15:00+25в1011430 0.0 1013953
18:00+21в610580 0.0 1013455
21:00+16вюв22751 0.0 101331